Time,TemperatureF,DewpointF,PressureIn,WindDirection,WindDirectionDegrees,WindSpeedMPH,WindSpeedGustMPH,Humidity,HourlyPrecipIn,Conditions,Clouds,dailyrainin,SoftwareType,DateUTC
2013-05-07 00:05:00,60.6,50.4,29.95,SSE,157,0.0,-999.0,69,-99.99,,,0.00,Acu-Link.com,2013-05-07 04:05:00,
2013-05-07 00:20:00,59.0,49.2,29.94,West,270,0.0,-999.0,70,-99.99,,,0.00,Acu-Link.com,2013-05-07 04:20:00,
2013-05-07 00:35:00,58.1,48.7,29.94,WNW,292,2.7,-999.0,71,-99.99,,,0.00,Acu-Link.com,2013-05-07 04:35:00,
2013-05-07 00:50:00,57.7,48.7,29.93,East,90,0.0,-999.0,72,-99.99,,,0.00,Acu-Link.com,2013-05-07 04:50:00,
2013-05-07 01:06:00,57.2,49.0,29.92,NW,315,0.0,-999.0,74,-99.99,,,0.00,Acu-Link.com,2013-05-07 05:06:00,
2013-05-07 01:21:00,56.3,48.5,29.92,South,180,1.7,-999.0,75,-99.99,,,0.00,Acu-Link.com,2013-05-07 05:21:00,
2013-05-07 01:36:00,55.4,48.3,29.93,NNW,337,1.7,-999.0,77,-99.99,,,0.00,Acu-Link.com,2013-05-07 05:36:00,
2013-05-07 01:51:00,54.7,48.3,29.93,SSE,157,0.0,-999.0,79,-99.99,,,0.00,Acu-Link.com,2013-05-07 05:51:00,
2013-05-07 02:06:00,53.8,48.1,29.91,NW,315,0.0,-999.0,81,-99.99,,,0.00,Acu-Link.com,2013-05-07 06:06:00,
2013-05-07 02:21:00,53.1,48.1,29.91,South,180,2.2,-999.0,83,-99.99,,,0.00,Acu-Link.com,2013-05-07 06:21:00,
2013-05-07 02:36:00,53.1,48.1,29.91,NNW,337,1.7,-999.0,83,-99.99,,,0.00,Acu-Link.com,2013-05-07 06:36:00,
2013-05-07 02:52:00,54.3,48.6,29.91,East,90,4.2,-999.0,81,-99.99,,,0.00,Acu-Link.com,2013-05-07 06:52:00,
2013-05-07 03:07:00,54.7,48.7,29.91,SSW,202,1.7,-999.0,80,-99.99,,,0.00,Acu-Link.com,2013-05-07 07:07:00,
2013-05-07 03:22:00,53.1,47.8,29.92,WSW,247,0.0,-999.0,82,-99.99,,,0.00,Acu-Link.com,2013-05-07 07:22:00,
2013-05-07 03:37:00,52.7,47.4,29.92,North,0,0.0,-999.0,82,-99.99,,,0.00,Acu-Link.com,2013-05-07 07:37:00,
2013-05-07 03:52:00,52.5,48.1,29.93,ESE,112,0.0,-999.0,85,-99.99,,,0.00,Acu-Link.com,2013-05-07 07:52:00,
2013-05-07 04:08:00,52.2,47.8,29.93,East,90,0.0,-999.0,85,-99.99,,,0.00,Acu-Link.com,2013-05-07 08:08:00,
2013-05-07 04:23:00,52.0,47.9,29.93,NNW,337,0.0,-999.0,86,-99.99,,,0.00,Acu-Link.com,2013-05-07 08:23:00,
2013-05-07 04:38:00,52.0,47.6,29.93,ESE,112,1.1,-999.0,85,-99.99,,,0.00,Acu-Link.com,2013-05-07 08:38:00,
2013-05-07 04:53:00,52.2,48.1,29.93,East,90,0.0,-999.0,86,-99.99,,,0.00,Acu-Link.com,2013-05-07 08:53:00,
2013-05-07 05:08:00,52.3,48.2,29.93,ESE,112,3.7,-999.0,86,-99.99,,,0.00,Acu-Link.com,2013-05-07 09:08:00,
2013-05-07 05:23:00,52.9,48.5,29.93,ESE,112,1.7,-999.0,85,-99.99,,,0.00,Acu-Link.com,2013-05-07 09:23:00,
2013-05-07 05:38:00,53.4,48.7,29.94,ESE,112,1.7,-999.0,84,-99.99,,,0.00,Acu-Link.com,2013-05-07 09:38:00,
2013-05-07 05:54:00,53.4,48.7,29.95,WNW,292,1.7,-999.0,84,-99.99,,,0.00,Acu-Link.com,2013-05-07 09:54:00,
2013-05-07 06:09:00,53.2,48.5,29.95,NE,45,0.0,-999.0,84,-99.99,,,0.00,Acu-Link.com,2013-05-07 10:09:00,
2013-05-07 06:24:00,54.5,49.4,29.95,ESE,112,1.1,-999.0,83,-99.99,,,0.00,Acu-Link.com,2013-05-07 10:24:00,
2013-05-07 06:39:00,54.9,49.2,29.95,ESE,112,2.2,-999.0,81,-99.99,,,0.00,Acu-Link.com,2013-05-07 10:39:00,
2013-05-07 06:54:00,54.9,49.2,29.96,ESE,112,3.2,-999.0,81,-99.99,,,0.00,Acu-Link.com,2013-05-07 10:54:00,
2013-05-07 07:09:00,55.4,49.7,29.96,ESE,112,4.2,-999.0,81,-99.99,,,0.00,Acu-Link.com,2013-05-07 11:09:00,
2013-05-07 07:24:00,56.1,49.7,29.96,ESE,112,6.3,-999.0,79,-99.99,,,0.00,Acu-Link.com,2013-05-07 11:24:00,
2013-05-07 07:39:00,56.7,49.6,29.96,East,90,5.8,-999.0,77,-99.99,,,0.00,Acu-Link.com,2013-05-07 11:39:00,
2013-05-07 07:54:00,56.8,49.7,29.96,ESE,112,3.7,-999.0,77,-99.99,,,0.00,Acu-Link.com,2013-05-07 11:54:00,
2013-05-07 08:09:00,57.9,50.0,29.97,ESE,112,2.7,-999.0,75,-99.99,,,0.00,Acu-Link.com,2013-05-07 12:09:00,
2013-05-07 08:25:00,58.6,50.3,29.97,ESE,112,3.2,-999.0,74,-99.99,,,0.00,Acu-Link.com,2013-05-07 12:25:00,
2013-05-07 08:40:00,60.6,50.4,29.97,ESE,112,4.7,-999.0,69,-99.99,,,0.00,Acu-Link.com,2013-05-07 12:40:00,
2013-05-07 08:55:00,63.0,51.0,29.97,SE,135,4.2,-999.0,65,-99.99,,,0.00,Acu-Link.com,2013-05-07 12:55:00,
2013-05-07 09:10:00,62.2,51.1,29.97,ESE,112,5.8,-999.0,67,-99.99,,,0.00,Acu-Link.com,2013-05-07 13:10:00,
2013-05-07 09:25:00,62.4,51.3,29.97,SE,135,6.8,-999.0,67,-99.99,,,0.00,Acu-Link.com,2013-05-07 13:25:00,
2013-05-07 09:40:00,64.0,52.0,29.97,East,90,7.8,-999.0,65,-99.99,,,0.00,Acu-Link.com,2013-05-07 13:40:00,
2013-05-07 09:55:00,65.7,52.3,29.96,ESE,112,5.3,-999.0,62,-99.99,,,0.00,Acu-Link.com,2013-05-07 13:55:00,
2013-05-07 10:10:00,65.7,52.3,29.96,SSE,157,3.7,-999.0,62,-99.99,,,0.00,Acu-Link.com,2013-05-07 14:10:00,
2013-05-07 10:26:00,66.9,52.6,29.95,ESE,112,7.8,-999.0,60,-99.99,,,0.00,Acu-Link.com,2013-05-07 14:26:00,
2013-05-07 10:41:00,69.1,53.7,29.95,NNW,337,6.3,-999.0,58,-99.99,,,0.00,Acu-Link.com,2013-05-07 14:41:00,
2013-05-07 10:56:00,69.4,53.5,29.95,NE,45,7.8,-999.0,57,-99.99,,,0.00,Acu-Link.com,2013-05-07 14:56:00,
2013-05-07 11:11:00,70.3,53.9,29.94,ESE,112,5.8,-999.0,56,-99.99,,,0.00,Acu-Link.com,2013-05-07 15:11:00,
2013-05-07 11:26:00,71.2,54.2,29.93,East,90,9.9,-999.0,55,-99.99,,,0.00,Acu-Link.com,2013-05-07 15:26:00,
2013-05-07 11:41:00,72.1,54.0,29.93,ESE,112,5.8,-999.0,53,-99.99,,,0.00,Acu-Link.com,2013-05-07 15:41:00,
2013-05-07 11:56:00,73.2,54.0,29.92,ESE,112,9.9,-999.0,51,-99.99,,,0.00,Acu-Link.com,2013-05-07 15:56:00,
2013-05-07 12:12:00,72.7,52.4,29.91,SE,135,6.3,-999.0,49,-99.99,,,0.00,Acu-Link.com,2013-05-07 16:12:00,
2013-05-07 12:27:00,74.1,52.0,29.90,ESE,112,10.9,-999.0,46,-99.99,,,0.00,Acu-Link.com,2013-05-07 16:27:00,
2013-05-07 12:42:00,73.8,52.3,29.90,East,90,6.8,-999.0,47,-99.99,,,0.00,Acu-Link.com,2013-05-07 16:42:00,
2013-05-07 12:57:00,73.9,52.4,29.89,ESE,112,6.3,-999.0,47,-99.99,,,0.00,Acu-Link.com,2013-05-07 16:57:00,
2013-05-07 13:12:00,75.6,53.3,29.88,SSE,157,7.8,-999.0,46,-99.99,,,0.00,Acu-Link.com,2013-05-07 17:12:00,
2013-05-07 13:27:00,75.4,52.6,29.87,ESE,112,8.9,-999.0,45,-99.99,,,0.00,Acu-Link.com,2013-05-07 17:27:00,
2013-05-07 13:43:00,74.5,52.9,29.87,ESE,112,10.9,-999.0,47,-99.99,,,0.00,Acu-Link.com,2013-05-07 17:43:00,
2013-05-07 13:58:00,75.0,52.2,29.86,ESE,112,6.3,-999.0,45,-99.99,,,0.00,Acu-Link.com,2013-05-07 17:58:00,
2013-05-07 14:13:00,75.0,51.0,29.86,SSE,157,7.8,-999.0,43,-99.99,,,0.00,Acu-Link.com,2013-05-07 18:13:00,
2013-05-07 14:28:00,75.2,51.8,29.86,ESE,112,5.3,-999.0,44,-99.99,,,0.00,Acu-Link.com,2013-05-07 18:28:00,
2013-05-07 14:43:00,75.9,51.8,29.85,ESE,112,8.3,-999.0,43,-99.99,,,0.00,Acu-Link.com,2013-05-07 18:43:00,
2013-05-07 14:58:00,75.4,51.3,29.84,ESE,112,6.3,-999.0,43,-99.99,,,0.00,Acu-Link.com,2013-05-07 18:58:00,
2013-05-07 15:13:00,75.6,51.5,29.85,ESE,112,9.9,-999.0,43,-99.99,,,0.00,Acu-Link.com,2013-05-07 19:13:00,
2013-05-07 15:28:00,77.2,51.0,29.84,East,90,9.4,-999.0,40,-99.99,,,0.00,Acu-Link.com,2013-05-07 19:28:00,
2013-05-07 15:43:00,77.0,50.1,29.84,East,90,9.9,-999.0,39,-99.99,,,0.00,Acu-Link.com,2013-05-07 19:43:00,
2013-05-07 15:59:00,75.6,49.6,29.84,ESE,112,6.8,-999.0,40,-99.99,,,0.00,Acu-Link.com,2013-05-07 19:59:00,
2013-05-07 16:14:00,76.6,50.5,29.84,SE,135,6.8,-999.0,40,-99.99,,,0.00,Acu-Link.com,2013-05-07 20:14:00,
2013-05-07 16:29:00,76.3,50.2,29.83,ESE,112,2.2,-999.0,40,-99.99,,,0.00,Acu-Link.com,2013-05-07 20:29:00,
2013-05-07 16:44:00,75.6,50.9,29.83,ESE,112,7.3,-999.0,42,-99.99,,,0.00,Acu-Link.com,2013-05-07 20:44:00,
2013-05-07 16:59:00,75.6,51.5,29.83,ESE,112,3.7,-999.0,43,-99.99,,,0.00,Acu-Link.com,2013-05-07 20:59:00,
2013-05-07 17:14:00,75.7,51.0,29.83,SSE,157,3.2,-999.0,42,-99.99,,,0.00,Acu-Link.com,2013-05-07 21:14:00,
2013-05-07 17:30:00,75.6,50.2,29.83,ESE,112,6.3,-999.0,41,-99.99,,,0.00,Acu-Link.com,2013-05-07 21:30:00,
2013-05-07 17:45:00,76.5,50.4,29.83,ESE,112,6.8,-999.0,40,-99.99,,,0.00,Acu-Link.com,2013-05-07 21:45:00,
2013-05-07 18:00:00,75.0,49.7,29.83,South,180,5.8,-999.0,41,-99.99,,,0.00,Acu-Link.com,2013-05-07 22:00:00,
2013-05-07 18:15:00,74.7,49.4,29.82,SSE,157,5.8,-999.0,41,-99.99,,,0.00,Acu-Link.com,2013-05-07 22:15:00,
2013-05-07 18:30:00,74.3,49.7,29.82,ESE,112,3.7,-999.0,42,-99.99,,,0.00,Acu-Link.com,2013-05-07 22:30:00,
2013-05-07 18:45:00,73.8,50.5,29.82,SE,135,2.7,-999.0,44,-99.99,,,0.00,Acu-Link.com,2013-05-07 22:45:00,
2013-05-07 19:00:00,72.3,52.1,29.83,South,180,7.3,-999.0,49,-99.99,,,0.00,Acu-Link.com,2013-05-07 23:00:00,
2013-05-07 19:15:00,70.2,53.3,29.84,SE,135,6.3,-999.0,55,-99.99,,,0.00,Acu-Link.com,2013-05-07 23:15:00,
2013-05-07 19:31:00,68.7,54.2,29.85,SSE,157,7.3,-999.0,60,-99.99,,,0.00,Acu-Link.com,2013-05-07 23:31:00,
2013-05-07 19:46:00,68.4,54.0,29.84,South,180,5.3,-999.0,60,-99.99,,,0.00,Acu-Link.com,2013-05-07 23:46:00,
2013-05-07 20:01:00,68.5,53.1,29.86,ENE,67,2.7,-999.0,58,-99.99,,,0.00,Acu-Link.com,2013-05-08 00:01:00,
2013-05-07 20:16:00,68.2,52.9,29.85,NE,45,3.2,-999.0,58,-99.99,,,0.00,Acu-Link.com,2013-05-08 00:16:00,
2013-05-07 20:31:00,67.6,53.2,29.86,NNE,22,2.7,-999.0,60,-99.99,,,0.00,Acu-Link.com,2013-05-08 00:31:00,
2013-05-07 20:47:00,67.3,53.4,29.86,NNE,22,2.7,-999.0,61,-99.99,,,0.00,Acu-Link.com,2013-05-08 00:47:00,
2013-05-07 21:02:00,67.3,53.4,29.86,ESE,112,6.8,-999.0,61,-99.99,,,0.00,Acu-Link.com,2013-05-08 01:02:00,
2013-05-07 21:17:00,67.1,53.2,29.87,ESE,112,3.2,-999.0,61,-99.99,,,0.00,Acu-Link.com,2013-05-08 01:17:00,
2013-05-07 21:33:00,66.7,53.3,29.88,South,180,1.7,-999.0,62,-99.99,,,0.00,Acu-Link.com,2013-05-08 01:33:00,
2013-05-07 21:48:00,66.2,53.2,29.88,ESE,112,4.2,-999.0,63,-99.99,,,0.00,Acu-Link.com,2013-05-08 01:48:00,
2013-05-07 22:03:00,66.4,53.4,29.88,ESE,112,6.8,-999.0,63,-99.99,,,0.00,Acu-Link.com,2013-05-08 02:03:00,
2013-05-07 22:18:00,66.6,53.6,29.88,ESE,112,3.2,-999.0,63,-99.99,,,0.00,Acu-Link.com,2013-05-08 02:18:00,
2013-05-07 22:33:00,66.2,53.2,29.88,ESE,112,4.2,-999.0,63,-99.99,,,0.00,Acu-Link.com,2013-05-08 02:33:00,
2013-05-07 22:48:00,66.0,53.0,29.88,ESE,112,3.2,-999.0,63,-99.99,,,0.00,Acu-Link.com,2013-05-08 02:48:00,
2013-05-07 23:04:00,65.7,53.2,29.88,East,90,5.8,-999.0,64,-99.99,,,0.00,Acu-Link.com,2013-05-08 03:04:00,
2013-05-07 23:19:00,65.7,53.2,29.88,ESE,112,3.7,-999.0,64,-99.99,,,0.00,Acu-Link.com,2013-05-08 03:19:00,
2013-05-07 23:34:00,65.7,53.2,29.88,East,90,7.8,-999.0,64,-99.99,,,0.00,Acu-Link.com,2013-05-08 03:34:00,
2013-05-07 23:49:00,65.5,53.4,29.88,East,90,6.8,-999.0,65,-99.99,,,0.00,Acu-Link.com,2013-05-08 03:49:00,